Lufkin, TX

6:31 PM CDT on April 25, 2017 (GMT -0500)
Angelina County

Weather History for KLFK - December, 2013

Change the Weather History Date:

Tuesday, December 3, 2013

  Actual Average Record
Temperature  
Mean Temperature 66 °F 53 °F  
Max Temperature 80 °F 64 °F 82 °F (1995)
Min Temperature 52 °F 42 °F 20 °F (1929)
Degree Days  
Heating Degree Days 0 13  
Month to date heating degree days 7 38  
Since 1 July heating degree days 363 345  
Cooling Degree Days 1 1  
Month to date cooling degree days 1 3  
Year to date cooling degree days 2842 2586  
Growing Degree Days 16 (Base 50)    
Moisture  
Dew Point 57 °F    
Average Humidity 74    
Maximum Humidity 100    
Minimum Humidity 48    
Precipitation  
Precipitation 0.00 in 0.16 in 4.40 in (1934)
Month to date precipitation 0.00 0.47  
Year to date precipitation 40.28 44.98  
Snow  
Snow 0.00 in - - ()
Month to date snowfall 0.0  
Since 1 July snowfall 0.0  
Snow Depth 0.00 in    
Sea Level Pressure  
Sea Level Pressure 29.66 in    
Wind  
Wind Speed 8 mph (South)    
Max Wind Speed 17 mph    
Max Gust Speed 24 mph    
Visibility 5 miles    
Events Fog    
T = Trace of Precipitation, MM = Missing Value Source: NWS Daily Summary

Daily Weather History Graph

Daily Weather History Graph

Search for Another Location

Airport or City:

Trip Planner

Search our weather history database for the weather conditions in past years. The results will help you decide how hot, cold, wet, or windy it might be!

Date:

Astronomy

Dec. 03, 2013 Rise Set
Actual Time 7:01 AM CST 5:16 PM CST
Civil Twilight 6:35 AM CST 5:42 PM CST
Nautical Twilight 6:05 AM CST 6:12 PM CST
Astronomical Twilight 5:35 AM CST 6:41 PM CST
Moon 7:33 AM CST (12/3) 6:18 PM CST (12/3)
Length of Visible Light 11h 07m
Length of Day
10h 14m
New Moon, 1% of the Moon is Illuminated
Dec 3
New Moon
Dec 9
First Quarter
Dec 17
Full
Dec 25
Last Quarter
Jan 1
New

Hourly Weather History & Observations

Time (CST) Temp. Dew Point Humidity Pressure Visibility Wind Dir Wind Speed Gust Speed Precip Events Conditions
12:26 AM 53.6 °F 53.6 °F 100% 29.69 in 2.5 mi SSE 6.9 mph - N/A   Clear
12:53 AM 54.0 °F 53.1 °F 97% 29.68 in 2.0 mi SSE 5.8 mph - N/A   Clear
1:04 AM 53.6 °F 53.6 °F 100% 29.68 in 1.0 mi SSE 6.9 mph - N/A   Clear
1:11 AM 53.6 °F 53.6 °F 100% 29.68 in 0.8 mi SSE 5.8 mph - N/A   Clear
1:21 AM 53.6 °F 53.6 °F 100% 29.68 in 1.2 mi SSE 5.8 mph - N/A   Partly Cloudy
1:27 AM 53.6 °F 53.6 °F 100% 29.67 in 0.8 mi SE 5.8 mph - N/A   Mist
1:40 AM 53.6 °F 53.6 °F 100% 29.67 in 0.2 mi SE 5.8 mph - 0.01 in Fog Fog
1:53 AM 54.0 °F 54.0 °F 100% 29.66 in 0.2 mi SE 4.6 mph - 0.01 in Fog Fog
2:53 AM 53.1 °F 52.0 °F 96% 29.65 in 0.2 mi SSE 3.5 mph - N/A Fog Fog
3:06 AM 57.2 °F 55.4 °F 94% 29.66 in 1.0 mi South 4.6 mph - N/A   Mist
3:11 AM 57.2 °F 57.2 °F 100% 29.66 in 3.0 mi South 5.8 mph - N/A   Mostly Cloudy
3:53 AM 60.1 °F 59.0 °F 96% 29.64 in 4.0 mi SSW 4.6 mph - N/A   Overcast
4:09 AM 60.8 °F 59.0 °F 94% 29.65 in 4.0 mi SSW 4.6 mph - N/A   Overcast
4:53 AM 60.1 °F 59.0 °F 96% 29.64 in 4.0 mi SSW 9.2 mph - N/A   Overcast
5:53 AM 60.1 °F 59.0 °F 96% 29.65 in 5.0 mi South 9.2 mph - N/A   Overcast
6:53 AM 60.1 °F 59.0 °F 96% 29.67 in 5.0 mi SSW 6.9 mph - N/A   Overcast
7:53 AM 60.1 °F 59.0 °F 96% 29.68 in 3.0 mi South 4.6 mph - N/A   Mostly Cloudy
8:01 AM 60.8 °F 59.0 °F 94% 29.68 in 2.5 mi SSE 4.6 mph - N/A   Mostly Cloudy
8:36 AM 60.8 °F 60.8 °F 100% 29.68 in 4.0 mi South 6.9 mph - N/A   Scattered Clouds
8:53 AM 63.0 °F 60.1 °F 90% 29.68 in 6.0 mi South 8.1 mph - N/A   Partly Cloudy
9:53 AM 66.9 °F 60.1 °F 79% 29.68 in 10.0 mi South 8.1 mph - N/A   Clear
10:53 AM 73.9 °F 57.0 °F 55% 29.68 in 10.0 mi SW 12.7 mph 20.7 mph N/A   Clear
11:53 AM 77.0 °F 57.0 °F 50% 29.65 in 10.0 mi SW 10.4 mph - N/A   Clear
12:53 PM 78.1 °F 57.0 °F 48% 29.63 in 10.0 mi SSW 12.7 mph 20.7 mph N/A   Clear
1:53 PM 79.0 °F 57.0 °F 47% 29.61 in 10.0 mi South 15.0 mph 23.0 mph N/A   Clear
2:53 PM 79.0 °F 57.0 °F 47% 29.59 in 10.0 mi South 11.5 mph 19.6 mph N/A   Clear
3:53 PM 78.1 °F 57.0 °F 48% 29.60 in 10.0 mi South 15.0 mph 19.6 mph N/A   Clear
4:53 PM 73.0 °F 57.0 °F 57% 29.60 in 10.0 mi South 5.8 mph - N/A   Clear
5:53 PM 69.1 °F 57.9 °F 68% 29.61 in 10.0 mi South 6.9 mph - N/A   Clear
6:53 PM 68.0 °F 59.0 °F 73% 29.62 in 9.0 mi South 5.8 mph - N/A   Clear
7:53 PM 66.9 °F 60.1 °F 79% 29.65 in 9.0 mi SSW 4.6 mph - N/A   Clear
8:53 PM 59.0 °F 57.0 °F 93% 29.67 in 8.0 mi ESE 4.6 mph - N/A   Clear
9:53 PM 63.0 °F 61.0 °F 93% 29.68 in 7.0 mi South 5.8 mph - N/A   Clear
10:53 PM 61.0 °F 60.1 °F 97% 29.69 in 5.0 mi SSE 5.8 mph - N/A   Clear
11:13 PM 62.6 °F 60.8 °F 94% 29.70 in 5.0 mi South 6.9 mph - N/A   Mostly Cloudy
11:49 PM 64.4 °F 62.6 °F 94% 29.70 in 6.0 mi South 9.2 mph - N/A   Partly Cloudy
11:53 PM 64.0 °F 62.1 °F 93% 29.70 in 6.0 mi South 8.1 mph - N/A   Partly Cloudy